Location: Unspecified
(0.0000°N, 0.0000°E)
Time: 12:59:38
(UTC+00:00)

Envisat - Pass Details

Date: 29 March 2020
Orbit: 764 x 766 km, 98.1° (Epoch: 02 April)

Event Time Altitude Azimuth Distance (km) Brightness Sun altitude
Rises 19:19:02 0° 207° (SSW) 3,230 6.5 -18.6°
Reaches altitude 10° 19:23:09 10° 240° (WSW) 2,300 6.3 -19.6°
Maximum altitude 19:24:40 11° 257° (WSW) 2,209 6.4 -20.0°
Drops below altitude 10° 19:26:11 10° 275° (W) 2,297 6.7 -20.4°
Sets 19:30:18 0° 308° (NW) 3,218 7.1 -21.4°
